H1 CPF 2 NER 2021 11 11 9 315 01 glonass132 H2 1401201 9132 39620 2021 11 11 0 0 0 2021 11 14 23 45 0 900 1 1 0 0 0 1 H9 10 0 59529 0.00000 0 -639580.757 13276994.597 21798693.908 10 0 59529 900.00000 0 -2521220.609 15081277.627 20449257.355 10 0 59529 1800.00000 0 -4127545.571 16887292.119 18703864.461 10 0 59529 2700.00000 0 -5438358.594 18630317.199 16596357.099 10 0 59529 3600.00000 0 -6446484.417 20244768.183 14167557.512 10 0 59529 4500.00000 0 -7157808.225 21666893.710 11464485.117 10 0 59529 5400.00000 0 -7590769.042 22837415.984 8539455.835 10 0 59529 6300.00000 0 -7775330.047 23704004.818 5449080.260 10 0 59529 7200.00000 0 -7751469.439 24223482.770 2253179.095 10 0 59529 8100.00000 0 -7567255.363 24363669.447 -986364.217 10 0 59529 9000.00000 0 -7276585.709 24104787.680 -4206792.361 10 0 59529 9900.00000 0 -6936687.574 23440372.139 -7345682.113 10 0 59529 10800.00000 0 -6605481.449 22377641.392 -10342148.595 10 0 59529 11700.00000 0 -6338921.047 20937316.494 -13138022.819 10 0 59529 12600.00000 0 -6188420.963 19152892.188 -15678979.808 10 0 59529 13500.00000 0 -6198481.015 17069389.497 -17915595.446 10 0 59529 14400.00000 0 -6404608.145 14741640.128 -19804311.444 10 0 59529 15300.00000 0 -6831624.596 12232172.773 -21308289.348 10 0 59529 16200.00000 0 -7492435.110 9608788.107 -22398136.618 10 0 59529 17100.00000 0 -8387306.885 6941922.435 -23052490.117 10 0 59529 18000.00000 0 -9503694.580 4301909.150 -23258444.938 10 0 59529 18900.00000 0 -10816619.821 1756251.585 -23011819.396 10 0 59529 19800.00000 0 -12289591.322 -632979.284 -22317250.080 10 0 59529 20700.00000 0 -13876028.708 -2811513.652 -21188114.072 10 0 59529 21600.00000 0 -15521131.678 -4734919.222 -19646278.859 10 0 59529 22500.00000 0 -17164116.905 -6370219.776 -17721683.819 10 0 59529 23400.00000 0 -18740729.004 -7697028.031 -15451760.736 10 0 59529 24300.00000 0 -20185919.803 -8708145.450 -12880704.157 10 0 59529 25200.00000 0 -21436582.520 -9409604.188 -10058605.681 10 0 59529 26100.00000 0 -22434224.607 -9820150.180 -7040469.437 10 0 59529 27000.00000 0 -23127465.396 -9970190.372 -3885128.650 10 0 59529 27900.00000 0 -23474251.947 -9900250.157 -654085.510 10 0 59529 28800.00000 0 -23443698.505 -9659008.096 2589701.579 10 0 59529 29700.00000 0 -23017471.191 -9300993.217 5783058.215 10 0 59529 30600.00000 0 -22190659.142 -8884044.512 8863836.012 10 0 59529 31500.00000 0 -20972095.518 -8466642.158 11772130.776 10 0 59529 32400.00000 0 -19384115.363 -8105225.169 14451452.166 10 0 59529 33300.00000 0 -17461761.382 -7851610.140 16849821.529 10 0 59529 34200.00000 0 -15251472.053 -7750620.900 18920776.419 10 0 59529 35100.00000 0 -12809308.090 -7838029.283 20624262.852 10 0 59529 36000.00000 0 -10198792.270 -8138893.473 21927398.893 10 0 59529 36900.00000 0 -7488453.383 -8666363.149 22805096.083 10 0 59529 37800.00000 0 -4749176.656 -9421000.657 23240528.246 10 0 59529 38700.00000 0 -2051470.291 -10390645.736 23225440.243 10 0 59529 39600.00000 0 537239.241 -11550828.542 22760292.219 10 0 59529 40500.00000 0 2955172.535 -12865713.074 21854237.890 10 0 59529 41400.00000 0 5148518.708 -14289531.312 20524938.229 10 0 59529 42300.00000 0 7073418.768 -15768448.227 18798214.727 10 0 59529 43200.00000 0 8697530.868 -17242780.280 16707549.021 10 0 59529 44100.00000 0 10001114.573 -18649475.558 14293438.279 10 0 59529 45000.00000 0 10977590.904 -19924752.876 11602618.177 10 0 59529 45900.00000 0 11633556.454 -21006790.592 8687167.631 10 0 59529 46800.00000 0 11988252.172 -21838353.644 5603511.525 10 0 59529 47700.00000 0 12072509.761 -22369249.550 2411339.744 10 0 59529 48600.00000 0 11927220.198 -22558510.944 -827537.609 10 0 59529 49500.00000 0 11601388.690 -22376213.145 -4050377.585 10 0 59529 50400.00000 0 11149857.573 -21804850.113 -7194711.982 10 0 59529 51300.00000 0 10630792.652 -20840210.191 -10199552.347 10 0 59529 52200.00000 0 10103038.546 -19491713.547 -13006569.421 10 0 59529 53100.00000 0 9623454.247 -17782195.593 -15561224.217 10 0 59529 54000.00000 0 9244341.280 -15747143.504 -17813828.887 10 0 59529 54900.00000 0 9011073.176 -13433415.810 -19720516.651 10 0 59529 55800.00000 0 8960026.863 -10897496.635 -21244101.640 10 0 59529 56700.00000 0 9116904.137 -8203355.651 -22354811.580 10 0 59529 57600.00000 0 9495515.283 -5420001.428 -23030878.566 10 0 59529 58500.00000 0 10097077.626 -2618828.974 -23258975.665 10 0 59529 59400.00000 0 10910060.319 129128.918 -23034490.117 10 0 59529 60300.00000 0 11910583.657 2755932.551 -22361626.805 10 0 59529 61200.00000 0 13063357.779 5199334.733 -21253338.986 10 0 59529 62100.00000 0 14323122.659 7405140.310 -19731086.590 10 0 59529 63000.00000 0 15636529.778 9329227.118 -17824425.835 10 0 59529 63900.00000 0 16944386.746 10939143.587 -15570437.407 10 0 59529 64800.00000 0 18184170.295 12215216.054 -13013003.868 10 0 59529 65700.00000 0 19292701.182 13151119.496 -10201950.202 10 0 59529 66600.00000 0 20208867.174 13753888.162 -7192064.658 10 0 59529 67500.00000 0 20876277.929 14043366.639 -4042019.620 10 0 59529 68400.00000 0 21245738.273 14051125.844 -813214.664 10 0 59529 69300.00000 0 21277434.061 13818891.472 2431434.220 10 0 59529 70200.00000 0 20942737.184 13396553.341 5628734.093 10 0 59529 71100.00000 0 20225552.757 12839842.000 8716457.614 10 0 59529 72000.00000 0 19123151.331 12207772.974 11634562.959 10 0 59529 72900.00000 0 17646451.170 11559968.632 14326366.409 10 0 59529 73800.00000 0 15819739.191 10953972.352 16739644.207 10 0 59529 74700.00000 0 13679843.090 10442669.359 18827642.088 10 0 59529 75600.00000 0 11274790.199 10071923.457 20549973.407 10 0 59529 76500.00000 0 8662009.960 9878528.970 21873389.324 10 0 59529 77400.00000 0 5906155.670 9888563.400 22772407.424 10 0 59529 78300.00000 0 3076636.396 10116208.936 23229788.156 10 0 59529 79200.00000 0 244961.364 10563091.021 23236851.519 10 0 59529 80100.00000 0 -2517993.617 11218160.426 22793629.404 10 0 59529 81000.00000 0 -5144685.648 12058122.708 21908852.009 10 0 59529 81900.00000 0 -7573459.961 13048396.298 20599769.542 10 0 59529 82800.00000 0 -9750856.855 14144558.764 18891813.246 10 0 59529 83700.00000 0 -11633576.852 15294220.808 16818102.449 10 0 59529 84600.00000 0 -13190024.636 16439250.056 14418806.823 10 0 59529 85500.00000 0 -14401369.482 17518252.276 11740375.647 10 0 59530 0.00000 0 -15262079.693 18469206.990 8834648.303 10 0 59530 900.00000 0 -15779910.444 19232148.434 5757860.579 10 0 59530 1800.00000 0 -15975345.291 19751779.016 2569568.948 10 0 59530 2700.00000 0 -15880516.770 19979907.844 -668492.629 10 0 59530 3600.00000 0 -15537650.182 19877610.810 -3893598.284 10 0 59530 4500.00000 0 -14997096.238 19417021.759 -7043237.445 10 0 59530 5400.00000 0 -14315034.819 18582678.684 -10056320.560 10 0 59530 6300.00000 0 -13550946.042 17372367.161 -12874360.389 10 0 59530 7200.00000 0 -12764954.698 15797424.028 -15442606.030 10 0 59530 8100.00000 0 -12015159.687 13882486.605 -17711107.756 10 0 59530 9000.00000 0 -11355060.929 11664695.761 -19635691.891 10 0 59530 9900.00000 0 -10831192.388 9192383.990 -21178826.476 10 0 59530 10800.00000 0 -10481061.502 6523301.134 -22310360.571 10 0 59530 11700.00000 0 -10331482.643 3722449.798 -23008122.273 10 0 59530 12600.00000 0 -10397375.929 859619.175 -23258363.119 10 0 59530 13500.00000 0 -10681083.294 -1993281.308 -23056039.439 10 0 59530 14400.00000 0 -11172232.027 -4764978.280 -22404924.223 10 0 59530 15300.00000 0 -11848152.925 -7387566.225 -21317546.317 10 0 59530 16200.00000 0 -12674836.672 -9799101.045 -19814957.103 10 0 59530 17100.00000 0 -13608389.095 -11945947.063 -17926328.230 10 0 59530 18000.00000 0 -14596924.478 -13784779.064 -15688387.499 10 0 59530 18900.00000 0 -15582817.093 -15284155.383 -13144703.357 10 0 59530 19800.00000 0 -16505215.523 -16425596.037 -10344831.797 10 0 59530 20700.00000 0 -17302712.619 -17204120.744 -7343342.607 10 0 59530 21600.00000 0 -17916057.031 -17628224.867 -4198744.636 10 0 59530 22500.00000 0 -18290790.183 -17719295.300 -972332.069 10 0 59530 23400.00000 0 -18379695.678 -17510492.374 2273024.329 10 0 59530 24300.00000 0 -18144956.165 -17045146.874 5474115.935 10 0 59530 25200.00000 0 -17559925.439 -16374741.933 8568639.285 10 0 59530 26100.00000 0 -16610440.194 -15556567.222 11496417.719 10 0 59530 27000.00000 0 -15295615.878 -14651146.583 14200576.837 10 0 59530 27900.00000 0 -13628093.207 -13719549.388 16628650.302 10 0 59530 28800.00000 0 -11633725.487 -12820700.309 18733594.319 10 0 59530 29700.00000 0 -9350720.514 -12008801.509 20474691.534 10 0 59530 30600.00000 0 -6828273.583 -11330975.734 21818327.789 10 0 59530 31500.00000 0 -4124749.358 -10825228.854 22738627.862 10 0 59530 32400.00000 0 -1305488.555 -10518816.289 23217939.532 10 0 59530 33300.00000 0 1559669.479 -10427080.411 23247158.198 10 0 59530 34200.00000 0 4399045.911 -10552806.125 22825887.343 10 0 59530 35100.00000 0 7141854.126 -10886120.055 21962433.099 10 0 59530 36000.00000 0 9720892.209 -11404936.309 20673633.995 10 0 59530 36900.00000 0 12075086.362 -12075929.238 18984529.783 10 0 59530 37800.00000 0 14151781.813 -12855992.011 16927875.903 10 0 59530 38700.00000 0 15908688.199 -13694119.867 14543512.647 10 0 59530 39600.00000 0 17315400.448 -14533639.535 11877600.678 10 0 59530 40500.00000 0 18354433.597 -15314691.980 8981736.778 10 0 59530 41400.00000 0 19021729.764 -15976865.118 5911965.880 10 0 59530 42300.00000 0 19326616.989 -16461866.723 2727707.496 10 0 59530 43200.00000 0 19291222.244 -16716125.867 -509383.733 10 0 59530 44100.00000 0 18949363.312 -16693213.840 -3736602.252 10 0 59530 45000.00000 0 18344965.826 -16355982.647 -6891398.275 10 0 59530 45900.00000 0 17530071.538 -15678330.638 -9912584.158 10 0 59530 46800.00000 0 16562520.996 -14646519.917 -12741517.471 10 0 59530 47700.00000 0 15503407.498 -13259988.727 -15323237.915 10 0 59530 48600.00000 0 14414409.016 -11531622.740 -17607536.102 10 0 59530 49500.00000 0 13355109.995 -9487471.631 -19549933.368 10 0 59530 50400.00000 0 12380425.691 -7165920.491 -21112553.236 10 0 59530 51300.00000 0 11538237.591 -4616348.280 -22264867.304 10 0 59530 52200.00000 0 10867339.851 -1897327.065 -22984300.497 10 0 59530 53100.00000 0 10395783.893 925564.753 -23256683.243 10 0 59530 54000.00000 0 10139691.697 3782225.761 -23076540.975 10 0 59530 54900.00000 0 10102588.779 6600709.130 -22447214.407 10 0 59530 55800.00000 0 10275286.014 9309983.624 -21380807.200 10 0 59530 56700.00000 0 10636316.253 11842663.260 -19897961.041 10 0 59530 57600.00000 0 11152908.081 14137591.751 -18027461.512 10 0 59530 58500.00000 0 11782456.140 16142173.423 -15805681.675 10 0 59530 59400.00000 0 12474425.952 17814352.759 -13275873.681 10 0 59530 60300.00000 0 13172612.371 19124159.317 -10487322.017 10 0 59530 61200.00000 0 13817655.343 20054753.007 -7494375.211 10 0 59530 62100.00000 0 14349705.272 20602926.012 -4355375.530 10 0 59530 63000.00000 0 14711123.709 20779040.890 -1131508.550 10 0 59530 63900.00000 0 14849103.393 20606408.504 2114403.477 10 0 59530 64800.00000 0 14718095.180 20120133.595 5319139.479 10 0 59530 65700.00000 0 14281937.803 19365478.590 8420322.981 10 0 59530 66600.00000 0 13515599.432 18395816.725 11357645.369 10 0 59530 67500.00000 0 12406456.845 17270262.966 14074044.162 10 0 59530 68400.00000 0 10955058.094 16051084.452 16516812.735 10 0 59530 69300.00000 0 9175336.755 14801001.063 18638619.712 10 0 59530 70200.00000 0 7094269.192 13580490.644 20398418.667 10 0 59530 71100.00000 0 4750989.713 12445212.424 21762231.402 10 0 59530 72000.00000 0 2195401.155 11443656.489 22703790.835 10 0 59530 72900.00000 0 -513660.835 10615116.865 23205032.643 10 0 59530 73800.00000 0 -3310633.491 9988071.714 23256427.794 10 0 59530 74700.00000 0 -6125711.218 9579036.706 22857151.086 10 0 59530 75600.00000 0 -8887506.304 9391937.702 22015083.838 10 0 59530 76500.00000 0 -11525776.973 9418027.273 20746651.663 10 0 59530 77400.00000 0 -13974111.180 9636347.087 19076501.108 10 0 59530 78300.00000 0 -16172456.744 10014715.786 17037021.559 10 0 59530 79200.00000 0 -18069394.707 10511200.393 14667721.385 10 0 59530 80100.00000 0 -19624063.276 11076009.487 12014469.809 10 0 59530 81000.00000 0 -20807653.986 11653728.995 9128618.288 10 0 59530 81900.00000 0 -21604419.079 12185807.293 6066017.307 10 0 59530 82800.00000 0 -22012148.992 12613185.850 2885946.633 10 0 59530 83700.00000 0 -22042100.503 12878965.424 -350021.376 10 0 59530 84600.00000 0 -21718378.737 12930996.022 -3579204.307 10 0 59530 85500.00000 0 -21076798.636 12724281.730 -6739015.846 10 0 59531 0.00000 0 -20163273.330 12223098.861 -9768172.518 10 0 59531 900.00000 0 -19031795.852 11402737.156 -12607879.590 10 0 59531 1800.00000 0 -17742099.571 10250790.202 -15202969.200 10 0 59531 2700.00000 0 -16357093.314 8767938.202 -17502974.164 10 0 59531 3600.00000 0 -14940179.592 6968188.631 -19463112.387 10 0 59531 4500.00000 0 -13552567.792 4878562.139 -21045164.107 10 0 59531 5400.00000 0 -12250695.164 2538234.319 -22218224.340 10 0 59531 6300.00000 0 -11083864.025 -2833.292 -22959315.373 10 0 59531 7200.00000 0 -10092194.844 -2685718.031 -23253846.702 10 0 59531 8100.00000 0 -9304981.733 -5444742.629 -23095912.698 10 0 59531 9000.00000 0 -8739520.137 -8209972.995 -22488421.277 10 0 59531 9900.00000 0 -8400456.824 -10909904.116 -21443050.057 10 0 59531 10800.00000 0 -8279690.186 -13474222.705 -19980029.824 10 0 59531 11700.00000 0 -8356825.635 -15836531.439 -18127758.570 10 0 59531 12600.00000 0 -8600167.197 -17936920.695 -15922252.805 10 0 59531 13500.00000 0 -8968203.417 -19724279.817 -13406446.329 10 0 59531 14400.00000 0 -9411524.340 -21158250.534 -10629349.892 10 0 59531 15300.00000 0 -9875087.667 -22210740.124 -7645088.408 10 0 59531 16200.00000 0 -10300736.915 -22866930.557 -4511835.133 10 0 59531 17100.00000 0 -10629863.385 -23125741.369 -1290664.587 10 0 59531 18000.00000 0 -10806097.482 -22999727.382 1955651.965 10 0 59531 18900.00000 0 -10777913.627 -22514416.724 5163883.486 10 0 59531 19800.00000 0 -10501036.869 -21707118.616 8271582.978 10 0 59531 20700.00000 0 -9940548.092 -20625253.034 11218312.350 10 0 59531 21600.00000 0 -9072597.896 -19324274.666 13946823.476 10 0 59531 22500.00000 0 -7885656.326 -17865280.503 16404171.784 10 0 59531 23400.00000 0 -6381245.761 -16312403.410 18542740.502 10 0 59531 24300.00000 0 -4574126.342 -14730102.374 20321156.094 10 0 59531 25200.00000 0 -2491926.584 -13180463.765 21705078.000 10 0 59531 26100.00000 0 -174235.138 -11720626.656 22667848.614 10 0 59531 27000.00000 0 2328808.019 -10400439.243 23190992.492 10 0 59531 27900.00000 0 4958362.210 -9260443.054 23264556.765 10 0 59531 28800.00000 0 7649101.650 -8330267.458 22887287.772 10 0 59531 29700.00000 0 10331704.643 -7627499.511 22066641.870 10 0 59531 30600.00000 0 12935514.140 -7157074.318 20818631.266 10 0 59531 31500.00000 0 15391260.536 -6911209.495 19167508.452 10 0 59531 32400.00000 0 17633735.443 -6869884.910 17145295.579 10 0 59531 33300.00000 0 19604307.159 -7001846.497 14791167.557 10 0 59531 34200.00000 0 21253174.987 -7266091.462 12150700.281 10 0 59531 35100.00000 0 22541270.229 -7613772.423 9274997.614 10 0 59531 36000.00000 0 23441725.946 -7990440.713 6219712.980 10 0 59531 36900.00000 0 23940855.047 -8338535.051 3043983.459 10 0 59531 37800.00000 0 24038596.411 -8600011.391 -190704.052 10 0 59531 38700.00000 0 23748410.457 -8719003.709 -3421693.607 10 0 59531 39600.00000 0 23096628.281 -8644403.910 -6586365.722 10 0 59531 40500.00000 0 22121281.064 -8332252.047 -9623344.877 10 0 59531 41400.00000 0 20870458.074 -7747835.601 -12473685.994 10 0 59531 42300.00000 0 19400261.279 -6867408.425 -15082016.998 10 0 59531 43200.00000 0 17772441.513 -5679455.492 -17397615.379 10 0 59531 44100.00000 0 16051814.555 -4185448.308 -19375397.740 10 0 59531 45000.00000 0 14303564.944 -2400057.029 -20976802.822 10 0 59531 45900.00000 0 12590550.157 -350807.836 -22170550.509 10 0 59531 46800.00000 0 10970718.024 1922802.670 -22933261.534 10 0 59531 47700.00000 0 9494745.762 4370701.468 -23249925.182 10 0 59531 48600.00000 0 8203999.877 6934085.517 -23114205.093 10 0 59531 49500.00000 0 7128902.926 9547645.392 -22528576.325 10 0 59531 50400.00000 0 6287776.225 12142074.628 -21504289.977 10 0 59531 51300.00000 0 5686207.581 14646760.964 -20061165.060 10 0 59531 52200.00000 0 5316970.997 16992547.461 -18227210.684 10 0 59531 53100.00000 0 5160501.926 19114447.898 -16038085.119 10 0 59531 54000.00000 0 5185907.876 20954202.416 -13536401.735 10 0 59531 54900.00000 0 5352471.201 22462565.665 -10770895.083 10 0 59531 55800.00000 0 5611579.672 23601230.705 -7795463.662 10 0 59531 56700.00000 0 5909001.861 24344307.304 -4668108.628 10 0 59531 57600.00000 0 6187409.384 24679292.198 -1449790.133 10 0 59531 58500.00000 0 6389037.343 24607490.604 1796774.966 10 0 59531 59400.00000 0 6458368.364 24143871.902 5008349.106 10 0 59531 60300.00000 0 6344724.726 23316366.687 8122418.094 10 0 59531 61200.00000 0 6004657.313 22164636.344 11078417.506 10 0 59531 62100.00000 0 5404029.167 20738368.745 13818916.442 10 0 59531 63000.00000 0 4519704.834 19095173.626 16290734.954 10 0 59531 63900.00000 0 3340774.009 17298167.837 18445973.102 10 0 59531 64800.00000 0 1869257.990 15413353.167 20242932.119 10 0 59531 65700.00000 0 120269.604 13506897.496 21646910.612 10 0 59531 66600.00000 0 -1878379.629 11642433.311 22630861.615 10 0 59531 67500.00000 0 -4087108.249 9878486.018 23175899.323 10 0 59531 68400.00000 0 -6455990.525 8266138.329 23271647.384 10 0 59531 69300.00000 0 -8926619.674 6847026.525 22916423.561 10 0 59531 70200.00000 0 -11434331.501 5651750.129 22117258.652 10 0 59531 71100.00000 0 -13910696.913 4698759.063 20889750.326 10 0 59531 72000.00000 0 -16286180.820 3993762.573 19257755.387 10 0 59531 72900.00000 0 -18492858.462 3529682.586 17252926.610 10 0 59531 73800.00000 0 -20467077.907 3287151.829 14914102.862 10 0 59531 74700.00000 0 -22151959.540 3235534.769 12286563.759 10 0 59531 75600.00000 0 -23499630.045 3334427.899 9421162.376 10 0 59531 76500.00000 0 -24473099.056 3535576.231 6373351.730 10 0 59531 77400.00000 0 -25047700.979 3785125.646 3202122.840 10 0 59531 78300.00000 0 -25212042.333 4026116.737 -31126.183 10 0 59531 79200.00000 0 -24968414.990 4201115.558 -3263769.063 10 0 59531 80100.00000 0 -24332657.710 4254870.812 -6433156.186 10 0 59531 81000.00000 0 -23333471.076 4136885.546 -9477822.565 10 0 59531 81900.00000 0 -22011213.637 3803794.678 -12338675.950 10 0 59531 82800.00000 0 -20416228.641 3221447.459 -14960142.141 10 0 59531 83700.00000 0 -18606770.416 2366605.974 -17291245.358 10 0 59531 84600.00000 0 -16646616.205 1228186.544 -19286602.605 10 0 59531 85500.00000 0 -14602462.662 -192010.179 -20907312.401 10 0 59532 0.00000 0 -12541215.475 -1879113.278 -22121720.218 10 0 59532 900.00000 0 -10527284.006 -3805551.086 -22906045.797 10 0 59532 1800.00000 0 -8619996.757 -5931960.856 -23244857.946 10 0 59532 2700.00000 0 -6871242.137 -8208605.939 -23131388.996 10 0 59532 3600.00000 0 -5323436.254 -10577241.117 -22567680.159 10 0 59532 4500.00000 0 -4007902.073 -12973350.593 -21564554.670 10 0 59532 5400.00000 0 -2943728.405 -15328666.146 -20141418.104 10 0 59532 6300.00000 0 -2137156.841 -17573860.763 -18325888.766 10 0 59532 7200.00000 0 -1581522.512 -19641305.085 -16153264.553 10 0 59532 8100.00000 0 -1257750.970 -21467770.851 -13665836.104 10 0 59532 9000.00000 0 -1135389.672 -22996967.307 -10912059.379 10 0 59532 9900.00000 0 -1174129.675 -24181803.186 -7945604.018 10 0 59532 10800.00000 0 -1325751.856 -24986278.356 -4824296.629 10 0 59532 11700.00000 0 -1536413.694 -25386924.904 -1608980.591 10 0 59532 12600.00000 0 -1749177.878 -25373736.628 1637684.007 10 0 59532 13500.00000 0 -1906673.616 -24950547.962 4852455.374 10 0 59532 14400.00000 0 -1953775.923 -24134846.995 7972754.367 10 0 59532 15300.00000 0 -1840187.681 -22957031.569 10937892.403 10 0 59532 16200.00000 0 -1522813.768 -21459141.243 13690257.915 10 0 59532 17100.00000 0 -967825.908 -19693120.088 16176437.556 10 0 59532 18000.00000 0 -152330.572 -17718684.965 18348250.065 10 0 59532 18900.00000 0 934430.422 -15600890.100 20163673.080 10 0 59532 19800.00000 0 2290396.877 -13407490.932 21587645.774 10 0 59532 20700.00000 0 3900552.910 -11206217.971 22592732.927 10 0 59532 21600.00000 0 5737340.604 -9062074.213 23159639.188 10 0 59532 22500.00000 0 7761606.934 -7034767.956 23277565.210 10 0 59532 23400.00000 0 9924044.212 -5176386.535 22944400.368 10 0 59532 24300.00000 0 12167064.187 -3529405.857 22166749.775 10 0 59532 25200.00000 0 14427028.354 -2125116.364 20959796.162 10 0 59532 26100.00000 0 16636742.489 -982528.666 19346999.946 10 0 59532 27000.00000 0 18728112.916 -107802.188 17359643.548 10 0 59532 27900.00000 0 20634855.389 505781.343 15036228.524 10 0 59532 28800.00000 0 22295145.286 877299.960 12421736.629 10 0 59532 29700.00000 0 23654100.114 1037151.881 9566768.245 10 0 59532 30600.00000 0 24665992.035 1025538.485 6526573.737 10 0 59532 31500.00000 0 25296098.879 890533.650 3359995.507 10 0 59532 32400.00000 0 25522116.801 685820.496 128340.051 10 0 59532 33300.00000 0 25335075.537 468190.442 -3105799.052 10 0 59532 34200.00000 0 24739717.558 294909.548 -6279745.178 10 0 59532 35100.00000 0 23754324.481 221062.933 -9331946.984 10 0 59532 36000.00000 0 22409996.947 296989.253 -12203168.036 10 0 59532 36900.00000 0 20749416.884 565913.781 -14837634.777 10 0 59532 37800.00000 0 18825142.645 1061880.670 -17184120.665 10 0 59532 38700.00000 0 16697507.046 1808072.775 -19196945.315 10 0 59532 39600.00000 0 14432205.094 2815591.421 -20836868.954 10 0 59532 40500.00000 0 12097671.267 4082749.473 -22071864.466 10 0 59532 41400.00000 0 9762355.178 5594909.747 -22877751.523 10 0 59532 42300.00000 0 7492009.031 7324877.920 -23238679.778 10 0 59532 43200.00000 0 5347099.939 9233835.881 -23147450.996 10 0 59532 44100.00000 0 3380455.196 11272778.635 -22605672.923 10 0 59532 45000.00000 0 1635239.168 13384396.392 -21623740.908 10 0 59532 45900.00000 0 143346.618 15505324.463 -20220646.642 10 0 59532 46800.00000 0 -1075720.036 17568667.588 -18423616.730 10 0 59532 47700.00000 0 -2015442.336 19506693.174 -16267587.342 10 0 59532 48600.00000 0 -2682321.613 21253580.301 -13794524.603 10 0 59532 49500.00000 0 -3095358.034 22748108.445 -11052603.670 10 0 59532 50400.00000 0 -3284995.640 23936171.951 -8095262.738 10 0 59532 51300.00000 0 -3291579.208 24773013.459 -4980150.966 10 0 59532 52200.00000 0 -3163389.795 25225081.296 -1767991.791 10 0 59532 53100.00000 0 -2954343.987 25271431.782 1478614.792 10 0 59532 54000.00000 0 -2721456.356 24904617.099 4696426.164 10 0 59532 54900.00000 0 -2522174.733 24131021.396 7822801.608 10 0 59532 55800.00000 0 -2411703.033 22970631.617 10796931.646 10 0 59532 56700.00000 0 -2440426.637 21456253.763 13561027.121 10 0 59532 57600.00000 0 -2651550.394 19632208.872 16061444.133 10 0 59532 58500.00000 0 -3079049.730 17552564.985 18249722.659 10 0 59532 59400.00000 0 -3746021.477 15278980.579 20083519.001 10 0 59532 60300.00000 0 -4663503.694 12878250.792 21527414.827 10 0 59532 61200.00000 0 -5829813.521 10419659.625 22553588.254 10 0 59532 62100.00000 0 -7230430.190 7972248.594 23142335.591 10 0 59532 63000.00000 0 -8838427.475 5602114.946 23282435.288 10 0 59532 63900.00000 0 -10615436.969 3369850.729 22971348.653 10 0 59532 64800.00000 0 -12513101.843 1328227.374 22215254.942 10 0 59532 65700.00000 0 -14474960.645 -479780.122 21028921.224 10 0 59532 66600.00000 0 -16438683.170 -2022549.538 19435410.256 10 0 59532 67500.00000 0 -18338566.211 -3280886.001 17465632.285 10 0 59532 68400.00000 0 -20108186.390 -4248572.201 15157749.217 10 0 59532 69300.00000 0 -21683100.788 -4932373.173 12556442.167 10 0 59532 70200.00000 0 -23003484.067 -5351496.907 9712055.673 10 0 59532 71100.00000 0 -24016593.187 -5536534.332 6679634.063 10 0 59532 72000.00000 0 -24678957.565 -5527923.589 3517867.565 10 0 59532 72900.00000 0 -24958203.649 -5374003.192 287967.468 10 0 59532 73800.00000 0 -24834437.560 -5128735.750 -2947508.917 10 0 59532 74700.00000 0 -24301127.541 -4849197.735 -6125861.420 10 0 59532 75600.00000 0 -23365448.405 -4592940.745 -9185455.652 10 0 59532 76500.00000 0 -22048072.390 -4415335.322 -12066914.100 10 0 59532 77400.00000 0 -20382413.748 -4367009.404 -14714266.709 10 0 59532 78300.00000 0 -18413357.124 -4491489.855 -17076038.702 10 0 59532 79200.00000 0 -16195521.300 -4823147.341 -19106254.437 10 0 59532 80100.00000 0 -13791129.444 -5385532.360 -20765337.497 10 0 59532 81000.00000 0 -11267573.472 -6190174.113 -22020889.188 10 0 59532 81900.00000 0 -8694773.098 -7235894.741 -22848329.840 10 0 59532 82800.00000 0 -6142439.065 -8508669.828 -23231389.747 10 0 59532 83700.00000 0 -3677354.157 -9982043.323 -23162439.464 10 0 59532 84600.00000 0 -1360785.206 -11618081.607 -22642652.126 10 0 59532 85500.00000 0 753865.828 -13368828.555 -21681993.624 99